Regional Weather Roundup
Issued by NWS

Home | Current Version | Previous Version | Graphics & Text | Print | Product List | Glossary On
Versions: 1 2 3 4 5 6 7 8 9 10 11 12 13 14 15 16 17 18 19 20 21 22 23 24 25 26 27 28 29 30 31 32 33 34 35 36 37 38 39 40 41 42 43 44 45 46 47 48 49 50
000
ASUS45 KTFX 290519
RWRMT
MONTANA HOURLY WEATHER ROUNDUP
NATIONAL WEATHER SERVICE GREAT FALLS MT
1119 PM MDT MON JUL 28 2014

NOTE: "FAIR" INDICATES FEW OR NO CLOUDS BELOW 12000 FEET WITH NO
SIGNIFICANT WEATHER AND/OR OBSTRUCTIONS TO VISIBILITY.

* THESE STATIONS ARE NOT UNDER NWS QUALITY CONTROL. THEY DO NOT
   REPORT WEATHER SUCH AS PRECIPITATION OR FOG.

MTZ001>007-043-290600-
WEST OF THE DIVIDE
CITY           SKY/WX    TMP DP  RH WIND       PRES   REMARKS
KALISPELL      CLEAR     61  52  72 CALM      30.12R
MISSOULA       PTCLDY    82  39  22 NW12      30.12R
BUTTE          PTCLDY    64  43  47 SE7       30.29R
MULLAN PASS    CLEAR     72  37  28 N5        30.33R
* LINCOLN      N/A       70  42  36 E4         N/A
* LOOKOUT PASS N/A       67  46  47 VRB1       N/A
* POLSON       N/A       72  40  31 N/A        N/A
* RONAN APT    CLEAR     61  52  72 N/A        N/A
* SEELEY LAKE  N/A       69  48  47 E2         N/A
* THOMP F APT  CLEAR     67  41  39 NW7G16     N/A
* YAAK HILL    N/A       71  49  46 E1         N/A
$$

MTZ008-052>055-290600-
SOUTHWEST MONTANA
CITY           SKY/WX    TMP DP  RH WIND       PRES   REMARKS
BOZEMAN        MOCLDY    72  45  38 S6        30.21R
DILLON         MOCLDY    64  45  50 NW7       30.26R
W YELLOWSTONE  CLOUDY    66  41  40 E9        30.41R
* THREE FORKS  MOCLDY    75  48  39 SE6        N/A
* BOULDER HILL N/A       69  37  31 S4         N/A
* MONIDA PASS  N/A       58  50  75 W12        N/A
* RAYNOLDS PAS N/A       67  66  97 VRB6G12    N/A
* WHITEHALL    N/A       75  45  34 SW4G9      N/A
* WISE RIVER   N/A       65  40  40 E4         N/A
$$

MTZ009>010-012-014-046-048-049-054-290600-
EAST SLOPES AND CENTRAL MONTANA
CITY           SKY/WX    TMP DP  RH WIND       PRES   REMARKS
CUT BANK       PTCLDY    70  45  41 E7        30.19R
GREAT FALLS    MOCLDY    75  45  34 N9        30.15S
HELENA         PTCLDY    75  45  34 W9        30.14R
MALMSTROM AFB  MOCLDY    79  43  28 E8G15     30.16S
* CONRAD       PTCLDY    66  52  61 N/A        N/A
* DEARBORN     N/A       75  45  34 N/A        N/A
* EAST GLACIER N/A       66  49  54 VRB6       N/A
* ROGERS PASS  N/A       63  40  43 NW2        N/A
* SAINT MARY   N/A       59  53  81 SE3        N/A
* SWEET GRASS  N/A       73  41  32 SE10       N/A
* WHITE SULPH  N/A       71  41  34 NE6        N/A
$$

MTZ011-013-016-021-035-040-045-047-050-051-290600-
NORTH CENTRAL MONTANA
CITY           SKY/WX    TMP DP  RH WIND       PRES   REMARKS
HAVRE          CLOUDY    79  43  28 SW8       30.21R
LEWISTOWN      PTCLDY    73  41  32 E14       30.24R
* FORT BENTON  MOCLDY    81  43  26 NE13G20   30.15R
* CHESTER      N/A       72  51  48 E10G16     N/A
* DENTON       N/A       77  44  31 SE7G20     N/A
* JUDITH GAP   N/A       72  43  35 E12G17     N/A
* LOMA         N/A       77  49  37 NE11       N/A
$$

MTZ017>020-022>027-061-062-290600-
NORTHEAST MONTANA
CITY           SKY/WX    TMP DP  RH WIND       PRES   REMARKS
GLASGOW        CLEAR     70  50  49 E13       30.20S
GLENDIVE       PTCLDY    70  52  53 SE7       30.24S
JORDAN         PTCLDY    72  46  40 E7        30.20S
SIDNEY         PTCLDY    66  52  61 CALM      30.23R
WOLF POINT     CLEAR     68  48  49 NE7       30.20F
* BEAVER HILL  N/A       64  54  70 E11        N/A
* CIRCLE       N/A       68  50  53 NE3        N/A
* LINDSAY DVD  N/A       63  49  60 NE8        N/A
$$

MTZ028>042-056>058-290600-
SOUTHCENTRAL AND SOUTHEAST MONTANA
CITY           SKY/WX    TMP DP  RH WIND       PRES   REMARKS
BAKER          CLEAR     61  54  78 SE8       30.26S
BILLINGS       CLOUDY    79  45  30 NE10      30.20R
LIVINGSTON     CLOUDY    75  41  30 S6        30.22S
MILES CITY     PTCLDY    73  52  48 E7        30.20S
* LAUREL APT   CLOUDY    79  45  30 N5         N/A
* ROUNDUP APT  CLOUDY    75  39  27 E5         N/A
* ALZADA       N/A       68  51  55 E9         N/A
* HYSHAM       N/A       76  43  31 E15G20     N/A
* LAME DEER    N/A       69  42  38 NE8G13     N/A
* REED POINT   N/A       82  48  31 SW4        N/A
* ROSCOE HILL  N/A       71  42  35 S13G22     N/A
$$

REGIONAL REPORTS...DAKOTAS
CITY           SKY/WX    TMP DP  RH WIND       PRES   REMARKS
WILLISTON      CLEAR     66  55  68 CALM      30.22S
DICKINSON      PTCLDY    57  52  83 SE8       30.24F
CROSBY         N/A       57  57 100 CALM      30.23S
TIOGA          MOCLDY    57  57 100 SE3       30.27S
WATFORD CITY   CLEAR     59  54  84 CALM      30.21S
BISMARCK       CLEAR     59  52  78 E3        30.24S
GRAND FORKS    CLEAR     55  54  96 W7        30.18S
FARGO          CLEAR     57  54  90 W5        30.19S
BUFFALO SD     PTCLDY    63  52  68 E10       30.20F
RAPID CITY     CLEAR     61  52  72 SE3       30.28R
$$

REGIONAL REPORTS...WYOMING/IDAHO/WASHINGTON
CITY           SKY/WX    TMP DP  RH WIND       PRES   REMARKS
GILLETTE       PTCLDY    70  52  53 SE7       30.26S
SHERIDAN       MOCLDY    72  50  46 S5        30.23R
YELLOWSTONE LA CLOUDY    59  43  56 N/A       30.52R
SALMON         MOCLDY    66  48  52 CALM      30.18R
MULLAN PASS    CLEAR     72  37  28 N5        30.33S
SAND POINT     CLEAR     63  52  68 CALM      30.06R
SPOKANE        FAIR      84  39  20 SE5       30.05R
$$

REGIONAL REPORTS...ALBERTA
CITY           SKY/WX    TMP DP  RH WIND       PRES   REMARKS
CALGARY        FAIR      70  55  59 SE6       30.19S
LETHBRIDGE     CLEAR     59  55  87 S7        30.17R
MEDICINE HAT   CLEAR     72  50  46 NE6       30.15R
EDMONTON       FAIR      68  63  84 E8        30.14S
WATERTON GATE  N/A       57  54  90 S1         N/A
CARDSTON       N/A       64  52  65 SW6        N/A
MILK RIVER     N/A       63  48  58 SE5        N/A
$$

REGIONAL REPORTS...SASKATCHEWAN
CITY           SKY/WX    TMP DP  RH WIND       PRES   REMARKS
SWIFT CURRENT  CLEAR     63  55  75 SE12      30.23S
REGINA         N/A       64  61  90 S7        30.22F
VAL MARIE      N/A       57  54  90 E8         N/A
ASSINIBOIA     N/A       61  54  78 SE2        N/A
CORONACH       N/A       52  50  93 W3         N/A

$$



USA.gov is the U.S. government's official web portal to all federal, state and local government web resources and services.